﻿測定場所 (Monitoring sites),日付 (Measurement date),時間 (Measurement time),線量率 最大値 (max) μGy/h,線量率 最小値 (min) μGy/h,線量率 平均値 (average) μGy/h,
調布 (Chofu),2019-06-16,23:01～24:00,0.0297,0.0252,0.0272,
調布 (Chofu),2019-06-16,22:01～23:00,0.0287,0.0250,0.0270,
調布 (Chofu),2019-06-16,21:01～22:00,0.0291,0.0247,0.0269,
調布 (Chofu),2019-06-16,20:01～21:00,0.0286,0.0254,0.0270,
調布 (Chofu),2019-06-16,19:01～20:00,0.0293,0.0256,0.0274,
調布 (Chofu),2019-06-16,18:01～19:00,0.0293,0.0253,0.0273,
調布 (Chofu),2019-06-16,17:01～18:00,0.0288,0.0259,0.0274,
調布 (Chofu),2019-06-16,16:01～17:00,0.0295,0.0254,0.0272,
調布 (Chofu),2019-06-16,15:01～16:00,0.0291,0.0254,0.0274,
調布 (Chofu),2019-06-16,14:01～15:00,0.0295,0.0251,0.0273,
調布 (Chofu),2019-06-16,13:01～14:00,0.0298,0.0249,0.0274,
調布 (Chofu),2019-06-16,12:01～13:00,0.0291,0.0244,0.0271,
調布 (Chofu),2019-06-16,11:01～12:00,0.0303,0.0253,0.0272,
調布 (Chofu),2019-06-16,10:01～11:00,0.0292,0.0256,0.0273,
調布 (Chofu),2019-06-16,09:01～10:00,0.0296,0.0250,0.0273,
調布 (Chofu),2019-06-16,08:01～09:00,0.0295,0.0258,0.0275,
調布 (Chofu),2019-06-16,07:01～08:00,0.0289,0.0254,0.0275,
調布 (Chofu),2019-06-16,06:01～07:00,0.0296,0.0256,0.0276,
調布 (Chofu),2019-06-16,05:01～06:00,0.0299,0.0259,0.0276,
調布 (Chofu),2019-06-16,04:01～05:00,0.0297,0.0263,0.0278,
調布 (Chofu),2019-06-16,03:01～04:00,0.0310,0.0265,0.0286,
調布 (Chofu),2019-06-16,02:01～03:00,0.0359,0.0287,0.0314,
調布 (Chofu),2019-06-16,01:01～02:00,0.0404,0.0331,0.0362,
調布 (Chofu),2019-06-16,00:01～01:00,0.0342,0.0277,0.0300,
調布 (Chofu),2019-06-15,23:01～24:00,0.0320,0.0257,0.0279,
調布 (Chofu),2019-06-15,22:01～23:00,0.0293,0.0251,0.0270,
調布 (Chofu),2019-06-15,21:01～22:00,0.0286,0.0256,0.0273,
調布 (Chofu),2019-06-15,20:01～21:00,0.0301,0.0265,0.0280,
調布 (Chofu),2019-06-15,19:01～20:00,0.0359,0.0279,0.0316,
調布 (Chofu),2019-06-15,18:01～19:00,0.0399,0.0328,0.0355,
調布 (Chofu),2019-06-15,17:01～18:00,0.0386,0.0319,0.0349,
調布 (Chofu),2019-06-15,16:01～17:00,0.0416,0.0317,0.0360,
調布 (Chofu),2019-06-15,15:01～16:00,0.0506,0.0378,0.0451,
調布 (Chofu),2019-06-15,14:01～15:00,0.0547,0.0462,0.0511,
調布 (Chofu),2019-06-15,13:01～14:00,0.0548,0.0451,0.0509,
調布 (Chofu),2019-06-15,12:01～13:00,0.0495,0.0324,0.0412,
調布 (Chofu),2019-06-15,11:01～12:00,0.0381,0.0324,0.0347,
調布 (Chofu),2019-06-15,10:01～11:00,0.0407,0.0335,0.0361,
調布 (Chofu),2019-06-15,09:01～10:00,0.0403,0.0355,0.0371,
調布 (Chofu),2019-06-15,08:01～09:00,0.0401,0.0313,0.0354,
調布 (Chofu),2019-06-15,07:01～08:00,0.0403,0.0326,0.0359,
調布 (Chofu),2019-06-15,06:01～07:00,0.0399,0.0339,0.0362,
調布 (Chofu),2019-06-15,05:01～06:00,0.0369,0.0338,0.0351,
調布 (Chofu),2019-06-15,04:01～05:00,0.0389,0.0335,0.0359,
調布 (Chofu),2019-06-15,03:01～04:00,0.0404,0.0340,0.0360,
調布 (Chofu),2019-06-15,02:01～03:00,0.0368,0.0319,0.0339,
調布 (Chofu),2019-06-15,01:01～02:00,0.0361,0.0304,0.0328,
調布 (Chofu),2019-06-15,00:01～01:00,0.0327,0.0275,0.0303,
調布 (Chofu),2019-06-14,23:01～24:00,0.0321,0.0277,0.0298,
調布 (Chofu),2019-06-14,22:01～23:00,0.0335,0.0278,0.0306,
調布 (Chofu),2019-06-14,21:01～22:00,0.0308,0.0258,0.0279,
調布 (Chofu),2019-06-14,20:01～21:00,0.0290,0.0254,0.0273,
調布 (Chofu),2019-06-14,19:01～20:00,0.0302,0.0250,0.0271,
調布 (Chofu),2019-06-14,18:01～19:00,0.0291,0.0257,0.0274,
調布 (Chofu),2019-06-14,17:01～18:00,0.0293,0.0246,0.0272,
調布 (Chofu),2019-06-14,16:01～17:00,0.0288,0.0256,0.0272,
調布 (Chofu),2019-06-14,15:01～16:00,0.0303,0.0252,0.0273,
調布 (Chofu),2019-06-14,14:01～15:00,0.0295,0.0255,0.0272,
調布 (Chofu),2019-06-14,13:01～14:00,0.0287,0.0249,0.0271,
調布 (Chofu),2019-06-14,12:01～13:00,0.0289,0.0257,0.0271,
調布 (Chofu),2019-06-14,11:01～12:00,0.0294,0.0256,0.0274,
調布 (Chofu),2019-06-14,10:01～11:00,0.0291,0.0250,0.0274,
調布 (Chofu),2019-06-14,09:01～10:00,0.0296,0.0257,0.0276,
調布 (Chofu),2019-06-14,08:01～09:00,0.0296,0.0262,0.0276,
調布 (Chofu),2019-06-14,07:01～08:00,0.0296,0.0263,0.0278,
調布 (Chofu),2019-06-14,06:01～07:00,0.0304,0.0258,0.0282,
調布 (Chofu),2019-06-14,05:01～06:00,0.0304,0.0267,0.0289,
調布 (Chofu),2019-06-14,04:01～05:00,0.0301,0.0261,0.0278,
調布 (Chofu),2019-06-14,03:01～04:00,0.0302,0.0254,0.0277,
調布 (Chofu),2019-06-14,02:01～03:00,0.0296,0.0256,0.0274,
調布 (Chofu),2019-06-14,01:01～02:00,0.0292,0.0254,0.0272,
調布 (Chofu),2019-06-14,00:01～01:00,0.0292,0.0255,0.0272,
調布 (Chofu),2019-06-13,23:01～24:00,0.0288,0.0249,0.0272,
調布 (Chofu),2019-06-13,22:01～23:00,0.0293,0.0252,0.0272,
調布 (Chofu),2019-06-13,21:01～22:00,0.0294,0.0255,0.0270,
調布 (Chofu),2019-06-13,20:01～21:00,0.0292,0.0250,0.0270,
調布 (Chofu),2019-06-13,19:01～20:00,0.0287,0.0253,0.0269,
調布 (Chofu),2019-06-13,18:01～19:00,0.0292,0.0249,0.0270,
調布 (Chofu),2019-06-13,17:01～18:00,0.0290,0.0251,0.0271,
調布 (Chofu),2019-06-13,16:01～17:00,0.0296,0.0248,0.0270,
調布 (Chofu),2019-06-13,15:01～16:00,0.0284,0.0247,0.0271,
調布 (Chofu),2019-06-13,14:01～15:00,0.0303,0.0254,0.0272,
調布 (Chofu),2019-06-13,13:01～14:00,0.0294,0.0253,0.0271,
調布 (Chofu),2019-06-13,12:01～13:00,0.0304,0.0256,0.0274,
調布 (Chofu),2019-06-13,11:01～12:00,0.0291,0.0253,0.0272,
調布 (Chofu),2019-06-13,10:01～11:00,0.0292,0.0251,0.0273,
調布 (Chofu),2019-06-13,09:01～10:00,0.0300,0.0253,0.0273,
調布 (Chofu),2019-06-13,08:01～09:00,0.0288,0.0257,0.0272,
調布 (Chofu),2019-06-13,07:01～08:00,0.0290,0.0254,0.0270,
調布 (Chofu),2019-06-13,06:01～07:00,0.0290,0.0249,0.0272,
調布 (Chofu),2019-06-13,05:01～06:00,0.0299,0.0254,0.0275,
調布 (Chofu),2019-06-13,04:01～05:00,0.0295,0.0253,0.0272,
調布 (Chofu),2019-06-13,03:01～04:00,0.0288,0.0257,0.0272,
調布 (Chofu),2019-06-13,02:01～03:00,0.0291,0.0250,0.0271,
調布 (Chofu),2019-06-13,01:01～02:00,0.0288,0.0257,0.0271,
調布 (Chofu),2019-06-13,00:01～01:00,0.0284,0.0253,0.0270,
調布 (Chofu),2019-06-12,23:01～24:00,0.0286,0.0252,0.0270,
調布 (Chofu),2019-06-12,22:01～23:00,0.0286,0.0254,0.0268,
調布 (Chofu),2019-06-12,21:01～22:00,0.0285,0.0255,0.0269,
調布 (Chofu),2019-06-12,20:01～21:00,0.0286,0.0251,0.0269,
調布 (Chofu),2019-06-12,19:01～20:00,0.0290,0.0256,0.0272,
調布 (Chofu),2019-06-12,18:01～19:00,0.0285,0.0248,0.0268,
調布 (Chofu),2019-06-12,17:01～18:00,0.0288,0.0251,0.0269,
調布 (Chofu),2019-06-12,16:01～17:00,0.0294,0.0253,0.0269,
調布 (Chofu),2019-06-12,15:01～16:00,0.0285,0.0248,0.0269,
調布 (Chofu),2019-06-12,14:01～15:00,0.0288,0.0249,0.0268,
調布 (Chofu),2019-06-12,13:01～14:00,0.0286,0.0249,0.0270,
調布 (Chofu),2019-06-12,12:01～13:00,0.0284,0.0251,0.0268,
調布 (Chofu),2019-06-12,11:01～12:00,0.0284,0.0252,0.0269,
調布 (Chofu),2019-06-12,10:01～11:00,0.0289,0.0254,0.0269,
調布 (Chofu),2019-06-12,09:01～10:00,0.0285,0.0249,0.0270,
調布 (Chofu),2019-06-12,08:01～09:00,0.0289,0.0246,0.0269,
調布 (Chofu),2019-06-12,07:01～08:00,0.0288,0.0252,0.0270,
調布 (Chofu),2019-06-12,06:01～07:00,0.0292,0.0251,0.0270,
調布 (Chofu),2019-06-12,05:01～06:00,0.0297,0.0247,0.0271,
調布 (Chofu),2019-06-12,04:01～05:00,0.0290,0.0253,0.0271,
調布 (Chofu),2019-06-12,03:01～04:00,0.0301,0.0260,0.0279,
調布 (Chofu),2019-06-12,02:01～03:00,0.0346,0.0283,0.0311,
調布 (Chofu),2019-06-12,01:01～02:00,0.0337,0.0296,0.0318,
調布 (Chofu),2019-06-12,00:01～01:00,0.0324,0.0280,0.0306,
調布 (Chofu),2019-06-11,23:01～24:00,0.0318,0.0277,0.0297,
調布 (Chofu),2019-06-11,22:01～23:00,0.0386,0.0294,0.0335,
調布 (Chofu),2019-06-11,21:01～22:00,0.0420,0.0348,0.0384,
調布 (Chofu),2019-06-11,20:01～21:00,0.0364,0.0284,0.0315,
調布 (Chofu),2019-06-11,19:01～20:00,0.0295,0.0252,0.0273,
調布 (Chofu),2019-06-11,18:01～19:00,0.0292,0.0257,0.0270,
調布 (Chofu),2019-06-11,17:01～18:00,0.0282,0.0256,0.0268,
調布 (Chofu),2019-06-11,16:01～17:00,0.0290,0.0256,0.0269,
調布 (Chofu),2019-06-11,15:01～16:00,0.0288,0.0250,0.0269,
調布 (Chofu),2019-06-11,14:01～15:00,0.0290,0.0254,0.0268,
調布 (Chofu),2019-06-11,13:01～14:00,0.0282,0.0251,0.0266,
調布 (Chofu),2019-06-11,12:01～13:00,0.0282,0.0249,0.0267,
調布 (Chofu),2019-06-11,11:01～12:00,0.0284,0.0238,0.0267,
調布 (Chofu),2019-06-11,10:01～11:00,0.0283,0.0248,0.0267,
調布 (Chofu),2019-06-11,09:01～10:00,0.0291,0.0251,0.0272,
調布 (Chofu),2019-06-11,08:01～09:00,0.0293,0.0251,0.0271,
調布 (Chofu),2019-06-11,07:01～08:00,0.0286,0.0257,0.0271,
調布 (Chofu),2019-06-11,06:01～07:00,0.0286,0.0250,0.0271,
調布 (Chofu),2019-06-11,05:01～06:00,0.0289,0.0251,0.0269,
調布 (Chofu),2019-06-11,04:01～05:00,0.0304,0.0254,0.0280,
調布 (Chofu),2019-06-11,03:01～04:00,0.0318,0.0279,0.0298,
調布 (Chofu),2019-06-11,02:01～03:00,0.0330,0.0283,0.0306,
調布 (Chofu),2019-06-11,01:01～02:00,0.0313,0.0263,0.0282,
調布 (Chofu),2019-06-11,00:01～01:00,0.0292,0.0257,0.0272,
調布 (Chofu),2019-06-10,23:01～24:00,0.0306,0.0262,0.0282,
調布 (Chofu),2019-06-10,22:01～23:00,0.0347,0.0283,0.0314,
調布 (Chofu),2019-06-10,21:01～22:00,0.0424,0.0322,0.0358,
調布 (Chofu),2019-06-10,20:01～21:00,0.0459,0.0367,0.0418,
調布 (Chofu),2019-06-10,19:01～20:00,0.0431,0.0364,0.0391,
調布 (Chofu),2019-06-10,18:01～19:00,0.0495,0.0400,0.0452,
調布 (Chofu),2019-06-10,17:01～18:00,0.0498,0.0420,0.0461,
調布 (Chofu),2019-06-10,16:01～17:00,0.0501,0.0431,0.0463,
調布 (Chofu),2019-06-10,15:01～16:00,0.0504,0.0363,0.0433,
調布 (Chofu),2019-06-10,14:01～15:00,0.0416,0.0353,0.0374,
調布 (Chofu),2019-06-10,13:01～14:00,0.0437,0.0355,0.0390,
調布 (Chofu),2019-06-10,12:01～13:00,0.0459,0.0364,0.0424,
調布 (Chofu),2019-06-10,11:01～12:00,0.0451,0.0366,0.0406,
調布 (Chofu),2019-06-10,10:01～11:00,0.0425,0.0358,0.0392,
調布 (Chofu),2019-06-10,09:01～10:00,0.0464,0.0391,0.0426,
調布 (Chofu),2019-06-10,08:01～09:00,0.0455,0.0339,0.0408,
調布 (Chofu),2019-06-10,07:01～08:00,0.0386,0.0336,0.0354,
調布 (Chofu),2019-06-10,06:01～07:00,0.0431,0.0337,0.0385,
調布 (Chofu),2019-06-10,05:01～06:00,0.0452,0.0359,0.0397,
調布 (Chofu),2019-06-10,04:01～05:00,0.0446,0.0349,0.0385,
調布 (Chofu),2019-06-10,03:01～04:00,0.0376,0.0291,0.0333,
調布 (Chofu),2019-06-10,02:01～03:00,0.0358,0.0297,0.0321,
調布 (Chofu),2019-06-10,01:01～02:00,0.0390,0.0339,0.0362,
調布 (Chofu),2019-06-10,00:01～01:00,0.0409,0.0342,0.0364,
